Location: Limoges
(45.8354°N, 1.2645°E)
Time: 17:59:49
(UTC+02:00)

Vanguard 2 Rocket - Pass Details

Date: 23 February 2024
Orbit: 555 x 3307 km, 32.9° (Epoch: 23 April)

Event Time Altitude Azimuth Distance (km) Brightness Sun altitude
Rises 18:46:16 0° 262° (W) 5,409 14.2 -3.2°
Reaches altitude 10° 18:49:27 10° 257° (WSW) 4,728 12.6 -3.8°
Maximum altitude 19:03:11 50° 188° (S) 3,499 10.0 -6.1°
Drops below altitude 10° 19:21:52 10° 121° (ESE) 6,258 10.7 -9.4°
Enters shadow 19:26:49 - 117° (ESE) 7,203 10.9 -10.2°
